Time,TemperatureF,DewpointF,PressureIn,WindDirection,WindDirectionDegrees,WindSpeedMPH,WindSpeedGustMPH,Humidity,HourlyPrecipIn,Conditions,Clouds,dailyrainin,SoftwareType,DateUTC
2013-09-15 00:02:00,56.7,52.5,30.02,NW,325,0.0,0.0,86,0.20,,SKC,0.00,VWS V14.01,2013-09-15 05:02:00,
2013-09-15 00:07:00,56.5,53.3,29.99,NW,325,0.0,0.0,89,0.16,,SKC,0.00,VWS V14.01,2013-09-15 05:07:00,
2013-09-15 00:12:00,56.3,53.4,29.99,NW,325,0.0,0.0,90,0.16,,SKC,0.00,VWS V14.01,2013-09-15 05:12:00,
2013-09-15 00:17:00,56.3,53.7,29.99,NW,325,0.0,0.0,91,0.16,,SKC,0.00,VWS V14.01,2013-09-15 05:17:00,
2013-09-15 00:23:00,56.1,53.5,29.99,NW,325,0.0,0.0,91,0.16,,SKC,0.00,VWS V14.01,2013-09-15 05:23:00,
2013-09-15 00:28:00,56.1,53.5,29.99,NW,325,0.0,0.0,91,0.16,,SKC,0.00,VWS V14.01,2013-09-15 05:28:00,
2013-09-15 00:34:00,55.9,53.7,29.99,NW,325,0.0,0.0,92,0.16,,SKC,0.00,VWS V14.01,2013-09-15 05:34:00,
2013-09-15 00:40:00,55.9,53.7,29.99,NW,325,0.0,0.0,92,0.08,,SKC,0.00,VWS V14.01,2013-09-15 05:40:00,
2013-09-15 00:45:00,55.9,53.7,29.99,NW,325,0.0,0.0,92,0.04,,SKC,0.00,VWS V14.01,2013-09-15 05:45:00,
2013-09-15 00:51:00,55.9,54.0,29.96,NW,325,0.0,0.0,93,0.04,,SKC,0.00,VWS V14.01,2013-09-15 05:51:00,
2013-09-15 00:56:00,55.9,54.0,29.96,NW,325,0.0,0.0,93,0.04,,SKC,0.00,VWS V14.01,2013-09-15 05:56:00,
2013-09-15 01:01:00,55.9,54.0,29.96,NW,325,0.0,0.0,93,0.00,,SKC,0.00,VWS V14.01,2013-09-15 06:01:00,
2013-09-15 01:06:00,55.9,54.0,29.96,NW,325,0.0,0.0,93,0.00,,SKC,0.00,VWS V14.01,2013-09-15 06:06:00,
2013-09-15 01:11:00,55.9,54.0,29.96,NW,325,0.0,0.0,93,0.00,,SKC,0.00,VWS V14.01,2013-09-15 06:11:00,
2013-09-15 01:18:00,55.9,54.0,29.96,NW,325,0.0,0.0,93,0.00,,SKC,0.00,VWS V14.01,2013-09-15 06:18:00,
2013-09-15 01:23:00,55.8,53.8,29.96,NW,325,0.0,0.0,93,0.00,,SKC,0.00,VWS V14.01,2013-09-15 06:23:00,
2013-09-15 01:28:00,55.8,53.8,29.96,NW,325,0.0,0.0,93,0.00,,SKC,0.00,VWS V14.01,2013-09-15 06:28:00,
2013-09-15 01:34:00,55.8,53.8,29.96,NW,325,0.0,0.0,93,0.00,,SKC,0.00,VWS V14.01,2013-09-15 06:34:00,
2013-09-15 01:39:00,55.8,53.8,29.96,NW,325,0.0,0.0,93,0.00,,SKC,0.00,VWS V14.01,2013-09-15 06:39:00,
2013-09-15 01:45:00,55.8,54.1,29.96,NW,325,0.0,0.0,94,0.00,,SKC,0.00,VWS V14.01,2013-09-15 06:45:00,
2013-09-15 01:50:00,55.8,54.1,29.96,NW,325,0.0,0.0,94,0.00,,SKC,0.00,VWS V14.01,2013-09-15 06:50:00,
2013-09-15 01:56:00,55.8,53.8,29.96,NW,325,0.0,0.0,93,0.00,,SKC,0.00,VWS V14.01,2013-09-15 06:56:00,
2013-09-15 02:01:00,55.8,53.8,29.96,NW,325,0.0,0.0,93,0.00,,SKC,0.00,VWS V14.01,2013-09-15 07:01:00,
2013-09-15 02:07:00,55.8,53.8,29.93,NW,325,0.0,0.0,93,0.00,,SKC,0.00,VWS V14.01,2013-09-15 07:07:00,
2013-09-15 02:13:00,55.9,54.0,29.93,NW,325,0.0,0.0,93,0.00,,SKC,0.00,VWS V14.01,2013-09-15 07:13:00,
2013-09-15 02:18:00,55.9,54.0,29.93,NW,325,0.0,0.0,93,0.00,,SKC,0.00,VWS V14.01,2013-09-15 07:18:00,
2013-09-15 02:24:00,55.9,54.0,29.93,NW,325,0.0,0.0,93,0.00,,SKC,0.00,VWS V14.01,2013-09-15 07:24:00,
2013-09-15 02:29:00,55.9,54.0,29.93,NW,325,0.0,0.0,93,0.00,,SKC,0.00,VWS V14.01,2013-09-15 07:29:00,
2013-09-15 02:35:00,55.9,53.7,29.93,NW,325,0.0,0.0,92,0.00,,SKC,0.00,VWS V14.01,2013-09-15 07:35:00,
2013-09-15 02:41:00,55.9,53.7,29.93,NW,325,0.0,0.0,92,0.00,,SKC,0.00,VWS V14.01,2013-09-15 07:41:00,
2013-09-15 02:46:00,55.9,53.4,29.93,NW,325,0.0,0.0,91,0.00,,SKC,0.00,VWS V14.01,2013-09-15 07:46:00,
2013-09-15 02:51:00,56.1,53.5,29.93,NW,325,0.0,0.0,91,0.00,,SKC,0.00,VWS V14.01,2013-09-15 07:51:00,
2013-09-15 02:57:00,56.1,53.2,29.93,NW,325,0.0,0.0,90,0.00,,SKC,0.00,VWS V14.01,2013-09-15 07:57:00,
2013-09-15 03:02:00,56.1,53.2,29.93,NW,325,0.0,0.0,90,0.00,,SKC,0.00,VWS V14.01,2013-09-15 08:02:00,
2013-09-15 03:07:00,56.1,52.9,29.91,NW,325,0.0,0.0,89,0.00,,SKC,0.00,VWS V14.01,2013-09-15 08:07:00,
2013-09-15 03:12:00,56.3,53.1,29.91,NW,325,0.0,0.0,89,0.00,,SKC,0.00,VWS V14.01,2013-09-15 08:12:00,
2013-09-15 03:17:00,56.3,52.8,29.91,NW,325,0.0,0.0,88,0.00,,SKC,0.00,VWS V14.01,2013-09-15 08:17:00,
2013-09-15 03:23:00,56.3,52.2,29.91,NW,325,0.0,0.0,86,0.00,,SKC,0.00,VWS V14.01,2013-09-15 08:23:00,
2013-09-15 03:28:00,56.5,52.3,29.91,NW,325,0.0,0.0,86,0.00,,SKC,0.00,VWS V14.01,2013-09-15 08:28:00,
2013-09-15 03:33:00,56.5,51.7,29.91,NW,325,0.0,0.0,84,0.00,,SKC,0.00,VWS V14.01,2013-09-15 08:33:00,
2013-09-15 03:39:00,56.5,51.7,29.91,NW,325,0.0,0.0,84,0.00,,SKC,0.00,VWS V14.01,2013-09-15 08:39:00,
2013-09-15 03:44:00,56.7,51.6,29.91,NW,325,0.0,0.0,83,0.00,,SKC,0.00,VWS V14.01,2013-09-15 08:44:00,
2013-09-15 03:49:00,56.7,51.6,29.91,NW,325,0.0,0.0,83,0.00,,SKC,0.00,VWS V14.01,2013-09-15 08:49:00,
2013-09-15 03:55:00,56.7,51.2,29.91,NW,325,0.0,0.0,82,0.00,,SKC,0.00,VWS V14.01,2013-09-15 08:55:00,
2013-09-15 04:00:00,56.7,51.2,29.91,NW,325,0.0,0.0,82,0.00,,SKC,0.00,VWS V14.01,2013-09-15 09:00:00,
2013-09-15 04:06:00,56.7,50.9,29.91,NW,325,0.0,0.0,81,0.00,,SKC,0.00,VWS V14.01,2013-09-15 09:06:00,
2013-09-15 04:11:00,56.7,50.9,29.91,NW,325,0.0,0.0,81,0.00,,SKC,0.00,VWS V14.01,2013-09-15 09:11:00,
2013-09-15 04:16:00,56.7,50.6,29.91,NW,325,0.0,0.0,80,0.00,,SKC,0.00,VWS V14.01,2013-09-15 09:16:00,
2013-09-15 04:21:00,56.8,50.7,29.91,NW,325,0.0,0.0,80,0.00,,SKC,0.00,VWS V14.01,2013-09-15 09:21:00,
2013-09-15 04:26:00,56.8,50.4,29.91,NW,325,0.0,0.0,79,0.00,,SKC,0.00,VWS V14.01,2013-09-15 09:26:00,
2013-09-15 04:32:00,56.8,50.1,29.91,NW,325,0.0,0.0,78,0.00,,SKC,0.00,VWS V14.01,2013-09-15 09:32:00,
2013-09-15 04:37:00,56.8,50.1,29.91,NW,325,0.0,0.0,78,0.00,,SKC,0.00,VWS V14.01,2013-09-15 09:37:00,
2013-09-15 04:42:00,56.8,50.1,29.91,NW,325,0.0,0.0,78,0.00,,SKC,0.00,VWS V14.01,2013-09-15 09:42:00,
2013-09-15 04:47:00,56.8,49.7,29.91,NW,325,0.0,0.0,77,0.00,,SKC,0.00,VWS V14.01,2013-09-15 09:47:00,
2013-09-15 04:53:00,56.8,49.7,29.91,NW,325,0.0,0.0,77,0.00,,SKC,0.00,VWS V14.01,2013-09-15 09:53:00,
2013-09-15 04:59:00,56.8,49.7,29.91,NW,325,0.0,0.0,77,0.00,,SKC,0.00,VWS V14.01,2013-09-15 09:59:00,
2013-09-15 05:04:00,56.8,49.4,29.91,NW,325,0.0,0.0,76,0.00,,SKC,0.00,VWS V14.01,2013-09-15 10:04:00,
2013-09-15 05:09:00,56.8,49.4,29.91,NW,325,0.0,0.0,76,0.00,,SKC,0.00,VWS V14.01,2013-09-15 10:09:00,
2013-09-15 05:15:00,56.8,49.4,29.91,NW,325,0.0,0.0,76,0.00,,SKC,0.00,VWS V14.01,2013-09-15 10:15:00,
2013-09-15 05:21:00,57.0,49.2,29.91,NW,325,0.0,0.0,75,0.00,,SKC,0.00,VWS V14.01,2013-09-15 10:21:00,
2013-09-15 05:26:00,57.0,49.2,29.91,NW,325,0.0,0.0,75,0.00,,SKC,0.00,VWS V14.01,2013-09-15 10:26:00,
2013-09-15 05:31:00,56.8,49.7,29.91,NW,325,0.0,0.0,77,0.00,,SKC,0.00,VWS V14.01,2013-09-15 10:31:00,
2013-09-15 05:36:00,56.7,50.2,29.91,NW,325,0.0,0.0,79,0.00,,SKC,0.00,VWS V14.01,2013-09-15 10:36:00,
2013-09-15 05:41:00,56.7,50.6,29.91,NW,325,0.0,0.0,80,0.04,,SKC,0.04,VWS V14.01,2013-09-15 10:41:00,
2013-09-15 05:47:00,56.7,50.6,29.91,NW,325,0.0,0.0,80,0.04,,SKC,0.04,VWS V14.01,2013-09-15 10:47:00,
2013-09-15 05:53:00,56.7,50.6,29.93,NW,325,0.0,0.0,80,0.04,,SKC,0.04,VWS V14.01,2013-09-15 10:53:00,
2013-09-15 05:59:00,56.5,50.7,29.93,NW,325,0.0,0.0,81,0.04,,SKC,0.04,VWS V14.01,2013-09-15 10:59:00,
2013-09-15 06:05:00,56.5,50.7,29.93,NW,325,0.0,0.0,81,0.04,,SKC,0.04,VWS V14.01,2013-09-15 11:05:00,
2013-09-15 06:10:00,56.5,51.1,29.93,NW,325,0.0,0.0,82,0.04,,SKC,0.04,VWS V14.01,2013-09-15 11:10:00,
2013-09-15 06:15:00,56.5,51.4,29.93,NW,325,0.0,0.0,83,0.04,,SKC,0.04,VWS V14.01,2013-09-15 11:15:00,
2013-09-15 06:20:00,56.5,51.4,29.93,NW,325,0.0,0.0,83,0.04,,SKC,0.04,VWS V14.01,2013-09-15 11:20:00,
2013-09-15 06:25:00,56.7,51.6,29.93,NW,325,0.0,0.0,83,0.04,,SKC,0.04,VWS V14.01,2013-09-15 11:25:00,
2013-09-15 06:30:00,56.7,51.9,29.93,NW,325,0.0,0.0,84,0.04,,SKC,0.04,VWS V14.01,2013-09-15 11:30:00,
2013-09-15 06:35:00,56.5,51.7,29.93,NW,325,0.0,0.0,84,0.04,,SKC,0.04,VWS V14.01,2013-09-15 11:35:00,
2013-09-15 06:41:00,56.5,51.7,29.93,NW,325,0.0,0.0,84,0.04,,SKC,0.04,VWS V14.01,2013-09-15 11:41:00,
2013-09-15 06:46:00,56.7,51.9,29.93,NW,325,0.0,0.0,84,0.00,,SKC,0.04,VWS V14.01,2013-09-15 11:46:00,
2013-09-15 07:25:00,56.5,52.0,29.93,North,0,0.0,0.0,85,0.00,,SKC,0.04,VWS V14.01,2013-09-15 12:25:00,
2013-09-15 07:30:00,56.3,51.9,29.93,North,0,0.0,0.0,85,0.00,,SKC,0.04,VWS V14.01,2013-09-15 12:30:00,
2013-09-15 07:36:00,56.3,52.2,29.96,North,0,0.0,0.0,86,0.00,,SKC,0.04,VWS V14.01,2013-09-15 12:36:00,
2013-09-15 07:41:00,56.7,52.8,29.96,North,0,0.0,0.0,87,0.00,,SKC,0.04,VWS V14.01,2013-09-15 12:41:00,
2013-09-15 07:46:00,56.5,53.0,29.96,North,0,0.0,0.0,88,0.04,,SKC,0.08,VWS V14.01,2013-09-15 12:46:00,
2013-09-15 07:51:00,56.5,53.0,29.96,North,0,0.0,0.0,88,0.08,,SKC,0.12,VWS V14.01,2013-09-15 12:51:00,
2013-09-15 07:57:00,55.9,52.1,29.96,North,0,0.0,0.0,87,0.16,,SKC,0.20,VWS V14.01,2013-09-15 12:57:00,
2013-09-15 08:02:00,55.9,52.1,29.96,North,0,0.0,0.0,87,0.16,,SKC,0.20,VWS V14.01,2013-09-15 13:02:00,
2013-09-15 08:07:00,55.8,52.3,29.96,North,0,0.0,0.0,88,0.20,,SKC,0.24,VWS V14.01,2013-09-15 13:07:00,
2013-09-15 08:12:00,55.9,52.8,29.96,North,0,0.0,0.0,89,0.20,,SKC,0.24,VWS V14.01,2013-09-15 13:12:00,
2013-09-15 08:17:00,55.8,52.6,29.96,North,0,0.0,0.0,89,0.20,,SKC,0.24,VWS V14.01,2013-09-15 13:17:00,
2013-09-15 08:23:00,55.6,52.7,29.96,North,0,0.0,0.0,90,0.24,,SKC,0.28,VWS V14.01,2013-09-15 13:23:00,
2013-09-15 08:28:00,55.6,52.7,29.96,North,0,0.0,0.0,90,0.24,,SKC,0.28,VWS V14.01,2013-09-15 13:28:00,
2013-09-15 08:33:00,55.8,53.2,29.96,North,0,0.0,0.0,91,0.24,,SKC,0.28,VWS V14.01,2013-09-15 13:33:00,
2013-09-15 08:38:00,55.9,53.4,29.99,North,0,0.0,0.0,91,0.24,,SKC,0.28,VWS V14.01,2013-09-15 13:38:00,
2013-09-15 08:44:00,56.1,53.5,29.99,North,0,0.0,0.0,91,0.24,,SKC,0.28,VWS V14.01,2013-09-15 13:44:00,
2013-09-15 08:49:00,56.1,53.8,29.99,North,0,0.0,0.0,92,0.20,,SKC,0.28,VWS V14.01,2013-09-15 13:49:00,
2013-09-15 08:54:00,56.3,54.0,29.99,North,0,0.0,0.0,92,0.16,,SKC,0.28,VWS V14.01,2013-09-15 13:54:00,
2013-09-15 08:59:00,56.3,54.0,29.99,North,0,0.0,0.0,92,0.08,,SKC,0.28,VWS V14.01,2013-09-15 13:59:00,
2013-09-15 09:04:00,56.5,54.5,29.99,North,0,0.0,0.0,93,0.04,,SKC,0.28,VWS V14.01,2013-09-15 14:04:00,
2013-09-15 09:09:00,56.5,54.5,29.99,North,0,0.0,0.0,93,0.04,,SKC,0.28,VWS V14.01,2013-09-15 14:09:00,
2013-09-15 09:14:00,56.5,54.5,29.99,North,0,0.0,0.0,93,0.04,,SKC,0.28,VWS V14.01,2013-09-15 14:14:00,
2013-09-15 09:19:00,56.5,54.5,29.99,North,0,0.0,0.0,93,0.04,,SKC,0.28,VWS V14.01,2013-09-15 14:19:00,
2013-09-15 09:24:00,56.3,54.3,29.99,North,0,0.0,0.0,93,0.00,,SKC,0.28,VWS V14.01,2013-09-15 14:24:00,
2013-09-15 09:29:00,56.5,54.5,29.99,North,0,0.0,0.0,93,0.00,,SKC,0.28,VWS V14.01,2013-09-15 14:29:00,
2013-09-15 09:34:00,56.7,54.7,29.99,North,0,0.0,0.0,93,0.00,,SKC,0.28,VWS V14.01,2013-09-15 14:34:00,
2013-09-15 09:39:00,57.0,55.3,30.02,North,0,0.0,0.0,94,0.00,,SKC,0.28,VWS V14.01,2013-09-15 14:39:00,
2013-09-15 09:44:00,57.2,55.2,30.02,North,0,0.0,0.0,93,0.00,,SKC,0.28,VWS V14.01,2013-09-15 14:44:00,
2013-09-15 09:49:00,57.6,55.6,30.02,North,0,0.0,0.0,93,0.00,,SKC,0.28,VWS V14.01,2013-09-15 14:49:00,
2013-09-15 09:54:00,57.6,55.6,30.02,North,0,0.0,0.0,93,0.00,,SKC,0.28,VWS V14.01,2013-09-15 14:54:00,
2013-09-15 10:00:00,57.9,55.9,30.02,North,0,0.0,0.0,93,0.00,,SKC,0.28,VWS V14.01,2013-09-15 15:00:00,
2013-09-15 10:05:00,58.1,56.1,30.02,North,0,0.0,0.0,93,0.00,,SKC,0.28,VWS V14.01,2013-09-15 15:05:00,
2013-09-15 10:10:00,58.3,55.7,30.02,North,0,0.0,0.0,91,0.00,,SKC,0.28,VWS V14.01,2013-09-15 15:10:00,
2013-09-15 10:15:00,58.5,54.9,30.02,North,0,0.0,0.0,88,0.00,,SKC,0.28,VWS V14.01,2013-09-15 15:15:00,
2013-09-15 10:20:00,58.6,54.2,30.02,North,0,0.0,0.0,85,0.00,,SKC,0.28,VWS V14.01,2013-09-15 15:20:00,
2013-09-15 10:25:00,58.8,53.7,30.02,North,0,0.0,0.0,83,0.00,,SKC,0.28,VWS V14.01,2013-09-15 15:25:00,
2013-09-15 10:30:00,58.8,53.0,30.02,North,0,0.0,0.0,81,0.00,,SKC,0.28,VWS V14.01,2013-09-15 15:30:00,
2013-09-15 10:35:00,59.0,52.5,30.02,North,0,0.0,0.0,79,0.00,,SKC,0.28,VWS V14.01,2013-09-15 15:35:00,
2013-09-15 10:40:00,59.2,52.0,30.05,North,0,0.0,0.0,77,0.00,,SKC,0.28,VWS V14.01,2013-09-15 15:40:00,
2013-09-15 10:45:00,59.4,51.8,30.05,North,0,0.0,0.0,76,0.00,,SKC,0.28,VWS V14.01,2013-09-15 15:45:00,
2013-09-15 10:50:00,59.4,51.5,30.05,North,0,0.0,0.0,75,0.00,,SKC,0.28,VWS V14.01,2013-09-15 15:50:00,
2013-09-15 10:55:00,59.7,51.4,30.05,North,0,0.0,0.0,74,0.00,,SKC,0.28,VWS V14.01,2013-09-15 15:55:00,
2013-09-15 11:00:00,59.9,51.2,30.05,North,0,0.0,0.0,73,0.00,,SKC,0.04,VWS V14.01,2013-09-15 16:00:00,
2013-09-15 11:05:00,59.7,51.1,30.05,North,0,0.0,0.0,73,0.00,,SKC,0.28,VWS V14.01,2013-09-15 16:05:00,
2013-09-15 11:10:00,59.7,50.7,30.05,North,0,0.0,0.0,72,0.00,,SKC,0.28,VWS V14.01,2013-09-15 16:10:00,
2013-09-15 11:15:00,59.9,50.9,30.05,North,0,0.0,0.0,72,0.00,,SKC,0.28,VWS V14.01,2013-09-15 16:15:00,
2013-09-15 11:20:00,60.3,51.2,30.05,North,0,0.0,0.0,72,0.00,,SKC,0.28,VWS V14.01,2013-09-15 16:20:00,
2013-09-15 11:25:00,60.4,51.0,30.05,North,0,0.0,0.0,71,0.00,,SKC,0.28,VWS V14.01,2013-09-15 16:25:00,
2013-09-15 11:31:00,60.4,51.0,30.05,North,0,0.0,0.0,71,0.00,,SKC,0.28,VWS V14.01,2013-09-15 16:31:00,
2013-09-15 11:36:00,60.4,50.6,30.05,North,0,0.0,0.0,70,0.00,,SKC,0.28,VWS V14.01,2013-09-15 16:36:00,
2013-09-15 12:00:00,61.0,49.2,30.08,North,0,0.0,0.0,65,0.00,,SKC,0.28,VWS V14.01,2013-09-15 17:00:00,
2013-09-15 12:05:00,61.0,49.2,30.08,North,0,0.0,0.0,65,0.00,,SKC,0.28,VWS V14.01,2013-09-15 17:05:00,
2013-09-15 12:10:00,61.0,49.5,30.08,North,0,0.0,0.0,66,0.00,,SKC,0.28,VWS V14.01,2013-09-15 17:10:00,
2013-09-15 12:15:00,61.2,49.3,30.08,North,0,0.0,0.0,65,0.00,,SKC,0.28,VWS V14.01,2013-09-15 17:15:00,
2013-09-15 12:20:00,61.5,50.1,30.08,North,0,0.0,0.0,66,0.00,,SKC,0.28,VWS V14.01,2013-09-15 17:20:00,
2013-09-15 12:26:00,61.5,49.2,30.08,North,0,0.0,0.0,64,0.00,,SKC,0.28,VWS V14.01,2013-09-15 17:26:00,
2013-09-15 12:31:00,61.7,49.0,30.08,North,0,0.0,0.0,63,0.00,,SKC,0.28,VWS V14.01,2013-09-15 17:31:00,
2013-09-15 12:33:00,61.9,48.7,30.08,North,0,0.0,0.0,62,0.00,,SKC,0.28,VWS V14.01,2013-09-15 17:33:00,
2013-09-15 12:38:00,61.5,48.0,30.11,North,0,0.0,0.0,61,0.00,,SKC,0.28,VWS V14.01,2013-09-15 17:38:00,
2013-09-15 12:44:00,61.5,48.4,30.11,North,0,0.0,0.0,62,0.00,,SKC,0.28,VWS V14.01,2013-09-15 17:44:00,
2013-09-15 12:50:00,61.7,48.6,30.11,North,0,0.0,0.0,62,0.00,,SKC,0.28,VWS V14.01,2013-09-15 17:50:00,
2013-09-15 12:55:00,61.7,49.0,30.11,North,0,0.0,0.0,63,0.00,,SKC,0.28,VWS V14.01,2013-09-15 17:55:00,
2013-09-15 13:01:00,61.5,48.0,30.11,North,0,0.0,0.0,61,0.00,,SKC,0.28,VWS V14.01,2013-09-15 18:01:00,
2013-09-15 13:07:00,61.3,48.2,30.11,North,0,0.0,0.0,62,0.00,,SKC,0.28,VWS V14.01,2013-09-15 18:07:00,
2013-09-15 13:12:00,61.7,47.7,30.11,North,0,0.0,0.0,60,0.00,,SKC,0.28,VWS V14.01,2013-09-15 18:12:00,
2013-09-15 13:17:00,61.9,47.4,30.11,North,0,0.0,0.0,59,0.00,,SKC,0.28,VWS V14.01,2013-09-15 18:17:00,
2013-09-15 13:22:00,62.1,47.6,30.11,North,0,0.0,0.0,59,0.00,,SKC,0.28,VWS V14.01,2013-09-15 18:22:00,
2013-09-15 13:28:00,62.1,48.0,30.11,North,0,0.0,0.0,60,0.00,,SKC,0.28,VWS V14.01,2013-09-15 18:28:00,
2013-09-15 13:33:00,62.2,46.8,30.11,North,0,0.0,0.0,57,0.00,,SKC,0.28,VWS V14.01,2013-09-15 18:33:00,
2013-09-15 13:38:00,62.8,46.4,30.14,North,0,0.0,0.0,55,0.00,,SKC,0.28,VWS V14.01,2013-09-15 18:38:00,
2013-09-15 13:43:00,63.0,46.6,30.14,North,0,0.0,0.0,55,0.00,,SKC,0.28,VWS V14.01,2013-09-15 18:43:00,
2013-09-15 13:48:00,62.6,46.7,30.14,North,0,0.0,0.0,56,0.00,,SKC,0.28,VWS V14.01,2013-09-15 18:48:00,
2013-09-15 13:53:00,62.4,47.0,30.14,North,0,0.0,0.0,57,0.00,,SKC,0.28,VWS V14.01,2013-09-15 18:53:00,
2013-09-15 13:58:00,62.4,46.5,30.14,North,0,0.0,0.0,56,0.00,,SKC,0.28,VWS V14.01,2013-09-15 18:58:00,
2013-09-15 14:04:00,62.6,46.7,30.14,North,0,0.0,0.0,56,0.00,,SKC,0.28,VWS V14.01,2013-09-15 19:04:00,
2013-09-15 14:09:00,62.6,46.2,30.14,North,0,0.0,0.0,55,0.00,,SKC,0.28,VWS V14.01,2013-09-15 19:09:00,
2013-09-15 14:14:00,62.4,46.5,30.14,North,0,0.0,0.0,56,0.00,,SKC,0.28,VWS V14.01,2013-09-15 19:14:00,
2013-09-15 14:19:00,62.4,47.0,30.14,North,0,0.0,0.0,57,0.00,,SKC,0.28,VWS V14.01,2013-09-15 19:19:00,
2013-09-15 14:24:00,62.6,46.7,30.14,North,0,0.0,0.0,56,0.00,,SKC,0.28,VWS V14.01,2013-09-15 19:24:00,
2013-09-15 14:29:00,62.6,46.7,30.14,North,0,0.0,0.0,56,0.00,,SKC,0.28,VWS V14.01,2013-09-15 19:29:00,
2013-09-15 14:34:00,62.8,46.4,30.14,North,0,0.0,0.0,55,0.00,,SKC,0.28,VWS V14.01,2013-09-15 19:34:00,
2013-09-15 14:39:00,63.1,47.2,30.14,North,0,0.0,0.0,56,0.00,,SKC,0.28,VWS V14.01,2013-09-15 19:39:00,
2013-09-15 14:44:00,63.3,45.9,30.14,North,0,0.0,0.0,53,0.00,,SKC,0.28,VWS V14.01,2013-09-15 19:44:00,
2013-09-15 14:49:00,63.1,45.8,30.14,North,0,0.0,0.0,53,0.00,,SKC,0.28,VWS V14.01,2013-09-15 19:49:00,
2013-09-15 14:54:00,63.5,46.1,30.14,North,0,0.0,0.0,53,0.00,,SKC,0.28,VWS V14.01,2013-09-15 19:54:00,
2013-09-15 14:59:00,63.7,46.7,30.14,North,0,0.0,0.0,54,0.00,,SKC,0.28,VWS V14.01,2013-09-15 19:59:00,
2013-09-15 15:04:00,63.7,45.8,30.14,North,0,0.0,0.0,52,0.00,,SKC,0.28,VWS V14.01,2013-09-15 20:04:00,
2013-09-15 15:09:00,63.9,46.4,30.17,North,0,0.0,0.0,53,0.00,,SKC,0.28,VWS V14.01,2013-09-15 20:09:00,
2013-09-15 15:15:00,63.7,44.7,30.17,North,0,0.0,0.0,50,0.00,,SKC,0.28,VWS V14.01,2013-09-15 20:15:00,
2013-09-15 15:20:00,63.7,45.2,30.17,North,0,0.0,0.0,51,0.00,,SKC,0.28,VWS V14.01,2013-09-15 20:20:00,
2013-09-15 15:25:00,64.0,45.0,30.17,North,0,0.0,0.0,50,0.00,,SKC,0.28,VWS V14.01,2013-09-15 20:25:00,
2013-09-15 15:30:00,64.2,45.7,30.17,North,0,0.0,0.0,51,0.00,,SKC,0.28,VWS V14.01,2013-09-15 20:30:00,
2013-09-15 15:35:00,63.5,45.6,30.17,North,0,0.0,0.0,52,0.00,,SKC,0.28,VWS V14.01,2013-09-15 20:35:00,
2013-09-15 15:40:00,63.1,45.8,30.17,North,0,0.0,0.0,53,0.00,,SKC,0.28,VWS V14.01,2013-09-15 20:40:00,
2013-09-15 15:45:00,63.3,45.4,30.17,North,0,0.0,0.0,52,0.00,,SKC,0.28,VWS V14.01,2013-09-15 20:45:00,
2013-09-15 15:50:00,63.7,45.8,30.17,North,0,0.0,0.0,52,0.00,,SKC,0.28,VWS V14.01,2013-09-15 20:50:00,
2013-09-15 15:55:00,63.9,45.9,30.17,North,0,0.0,0.0,52,0.00,,SKC,0.28,VWS V14.01,2013-09-15 20:55:00,
2013-09-15 16:00:00,63.9,44.9,30.17,North,0,0.0,0.0,50,0.00,,SKC,0.28,VWS V14.01,2013-09-15 21:00:00,
2013-09-15 16:05:00,64.0,44.5,30.17,North,0,0.0,0.0,49,0.00,,SKC,0.28,VWS V14.01,2013-09-15 21:05:00,
2013-09-15 16:10:00,64.0,44.5,30.17,North,0,0.0,0.0,49,0.00,,SKC,0.28,VWS V14.01,2013-09-15 21:10:00,
2013-09-15 16:15:00,63.9,44.9,30.17,North,0,0.0,0.0,50,0.00,,SKC,0.28,VWS V14.01,2013-09-15 21:15:00,
2013-09-15 16:20:00,63.7,44.7,30.17,North,0,0.0,0.0,50,0.00,,SKC,0.28,VWS V14.01,2013-09-15 21:20:00,
2013-09-15 16:25:00,63.7,45.2,30.17,North,0,0.0,0.0,51,0.00,,SKC,0.28,VWS V14.01,2013-09-15 21:25:00,
2013-09-15 16:31:00,63.5,45.6,30.17,North,0,0.0,0.0,52,0.00,,SKC,0.28,VWS V14.01,2013-09-15 21:31:00,
2013-09-15 16:36:00,63.7,45.2,30.17,North,0,0.0,0.0,51,0.00,,SKC,0.28,VWS V14.01,2013-09-15 21:36:00,
2013-09-15 16:41:00,63.9,45.4,30.17,North,0,0.0,0.0,51,0.00,,SKC,0.28,VWS V14.01,2013-09-15 21:41:00,
2013-09-15 16:46:00,64.0,45.6,30.17,North,0,0.0,0.0,51,0.00,,SKC,0.28,VWS V14.01,2013-09-15 21:46:00,
2013-09-15 16:51:00,64.8,45.7,30.20,North,0,0.0,0.0,50,0.00,,SKC,0.28,VWS V14.01,2013-09-15 21:51:00,
2013-09-15 16:56:00,64.4,44.3,30.20,North,0,0.0,0.0,48,0.00,,SKC,0.28,VWS V14.01,2013-09-15 21:56:00,
2013-09-15 17:01:00,64.4,45.4,30.20,North,0,0.0,0.0,50,0.00,,SKC,0.28,VWS V14.01,2013-09-15 22:01:00,
2013-09-15 17:06:00,64.4,44.8,30.20,North,0,0.0,0.0,49,0.00,,SKC,0.28,VWS V14.01,2013-09-15 22:06:00,
2013-09-15 17:11:00,64.2,44.7,30.20,North,0,0.0,0.0,49,0.00,,SKC,0.28,VWS V14.01,2013-09-15 22:11:00,
2013-09-15 17:16:00,64.0,45.0,30.20,North,0,0.0,0.0,50,0.00,,SKC,0.28,VWS V14.01,2013-09-15 22:16:00,
2013-09-15 17:21:00,63.9,45.4,30.20,North,0,0.0,0.0,51,0.00,,SKC,0.28,VWS V14.01,2013-09-15 22:21:00,
2013-09-15 17:26:00,63.7,45.8,30.20,North,0,0.0,0.0,52,0.00,,SKC,0.28,VWS V14.01,2013-09-15 22:26:00,
2013-09-15 17:31:00,63.5,45.6,30.20,North,0,0.0,0.0,52,0.00,,SKC,0.28,VWS V14.01,2013-09-15 22:31:00,
2013-09-15 17:36:00,63.5,46.1,30.20,North,0,0.0,0.0,53,0.00,,SKC,0.28,VWS V14.01,2013-09-15 22:36:00,
2013-09-15 17:41:00,63.3,46.4,30.20,North,0,0.0,0.0,54,0.00,,SKC,0.28,VWS V14.01,2013-09-15 22:41:00,
2013-09-15 17:47:00,63.1,46.2,30.20,North,0,0.0,0.0,54,0.00,,SKC,0.28,VWS V14.01,2013-09-15 22:47:00,
2013-09-15 17:52:00,63.1,46.2,30.20,North,0,0.0,0.0,54,0.00,,SKC,0.28,VWS V14.01,2013-09-15 22:52:00,
2013-09-15 17:57:00,63.1,46.7,30.20,North,0,0.0,0.0,55,0.00,,SKC,0.28,VWS V14.01,2013-09-15 22:57:00,
2013-09-15 18:02:00,63.1,47.2,30.20,North,0,0.0,0.0,56,0.00,,SKC,0.28,VWS V14.01,2013-09-15 23:02:00,
2013-09-15 18:07:00,63.1,47.2,30.20,North,0,0.0,0.0,56,0.00,,SKC,0.28,VWS V14.01,2013-09-15 23:07:00,
2013-09-15 18:12:00,63.1,47.2,30.20,North,0,0.0,0.0,56,0.00,,SKC,0.28,VWS V14.01,2013-09-15 23:12:00,
2013-09-15 18:17:00,63.1,46.2,30.20,North,0,0.0,0.0,54,0.00,,SKC,0.28,VWS V14.01,2013-09-15 23:17:00,
2013-09-15 18:22:00,63.0,46.6,30.23,North,0,0.0,0.0,55,0.00,,SKC,0.28,VWS V14.01,2013-09-15 23:22:00,
2013-09-15 18:27:00,63.0,46.6,30.23,North,0,0.0,0.0,55,0.00,,SKC,0.28,VWS V14.01,2013-09-15 23:27:00,
2013-09-15 18:32:00,63.0,47.5,30.23,North,0,0.0,0.0,57,0.00,,SKC,0.28,VWS V14.01,2013-09-15 23:32:00,
2013-09-15 18:37:00,62.6,47.6,30.23,North,0,0.0,0.0,58,0.00,,SKC,0.28,VWS V14.01,2013-09-15 23:37:00,
2013-09-15 18:42:00,62.4,48.4,30.23,North,0,0.0,0.0,60,0.00,,SKC,0.28,VWS V14.01,2013-09-15 23:42:00,
2013-09-15 18:47:00,62.2,48.6,30.23,North,0,0.0,0.0,61,0.00,,SKC,0.28,VWS V14.01,2013-09-15 23:47:00,
2013-09-15 18:52:00,62.2,48.6,30.23,North,0,0.0,0.0,61,0.00,,SKC,0.28,VWS V14.01,2013-09-15 23:52:00,
2013-09-15 18:57:00,62.1,48.9,30.23,North,0,0.0,0.0,62,0.00,,SKC,0.28,VWS V14.01,2013-09-15 23:57:00,
2013-09-15 19:02:00,61.9,49.2,30.23,North,0,0.0,0.0,63,0.00,,SKC,0.28,VWS V14.01,2013-09-16 00:02:00,
2013-09-15 19:07:00,61.7,49.0,30.23,North,0,0.0,0.0,63,0.00,,SKC,0.28,VWS V14.01,2013-09-16 00:07:00,
2013-09-15 19:12:00,61.5,49.2,30.23,North,0,0.0,0.0,64,0.00,,SKC,0.28,VWS V14.01,2013-09-16 00:12:00,
2013-09-15 19:18:00,61.2,48.5,30.23,North,0,0.0,0.0,63,0.00,,SKC,0.28,VWS V14.01,2013-09-16 00:18:00,
2013-09-15 19:23:00,61.0,48.3,30.23,North,0,0.0,0.0,63,0.00,,SKC,0.28,VWS V14.01,2013-09-16 00:23:00,
2013-09-15 19:28:00,60.6,48.4,30.23,North,0,0.0,0.0,64,0.00,,SKC,0.28,VWS V14.01,2013-09-16 00:28:00,
2013-09-15 19:33:00,60.3,48.5,30.23,North,0,0.0,0.0,65,0.00,,SKC,0.28,VWS V14.01,2013-09-16 00:33:00,
2013-09-15 19:38:00,59.9,48.5,30.23,North,0,0.0,0.0,66,0.00,,SKC,0.28,VWS V14.01,2013-09-16 00:38:00,
2013-09-15 19:43:00,59.4,48.4,30.23,North,0,0.0,0.0,67,0.00,,SKC,0.28,VWS V14.01,2013-09-16 00:43:00,
2013-09-15 19:48:00,59.2,48.6,30.23,North,0,0.0,0.0,68,0.00,,SKC,0.28,VWS V14.01,2013-09-16 00:48:00,
2013-09-15 19:53:00,58.8,48.3,30.23,North,0,0.0,0.0,68,0.00,,SKC,0.28,VWS V14.01,2013-09-16 00:53:00,
2013-09-15 19:58:00,58.6,48.5,30.23,North,0,0.0,0.0,69,0.00,,SKC,0.28,VWS V14.01,2013-09-16 00:58:00,
2013-09-15 20:03:00,58.5,48.3,30.23,North,0,0.0,0.0,69,0.00,,SKC,0.28,VWS V14.01,2013-09-16 01:03:00,
2013-09-15 20:08:00,58.1,48.8,30.26,North,0,0.0,0.0,71,0.00,,SKC,0.28,VWS V14.01,2013-09-16 01:08:00,
2013-09-15 20:13:00,58.1,48.8,30.26,North,0,0.0,0.0,71,0.00,,SKC,0.28,VWS V14.01,2013-09-16 01:13:00,
2013-09-15 20:18:00,57.9,49.0,30.26,North,0,0.0,0.0,72,0.00,,SKC,0.28,VWS V14.01,2013-09-16 01:18:00,
2013-09-15 20:23:00,57.7,48.8,30.26,North,0,0.0,0.0,72,0.00,,SKC,0.28,VWS V14.01,2013-09-16 01:23:00,
2013-09-15 20:28:00,57.4,48.8,30.26,North,0,0.0,0.0,73,0.00,,SKC,0.28,VWS V14.01,2013-09-16 01:28:00,
2013-09-15 20:33:00,57.2,48.6,30.26,North,0,0.0,0.0,73,0.00,,SKC,0.28,VWS V14.01,2013-09-16 01:33:00,
2013-09-15 20:38:00,57.0,48.5,30.26,North,0,0.0,0.0,73,0.00,,SKC,0.28,VWS V14.01,2013-09-16 01:38:00,
2013-09-15 20:44:00,57.0,48.8,30.26,North,0,0.0,0.0,74,0.00,,SKC,0.28,VWS V14.01,2013-09-16 01:44:00,
2013-09-15 20:49:00,56.8,48.7,30.26,North,0,0.0,0.0,74,0.00,,SKC,0.28,VWS V14.01,2013-09-16 01:49:00,
2013-09-15 20:54:00,56.7,48.5,30.26,North,0,0.0,0.0,74,0.00,,SKC,0.28,VWS V14.01,2013-09-16 01:54:00,
2013-09-15 20:59:00,56.5,48.7,30.26,North,0,0.0,0.0,75,0.00,,SKC,0.28,VWS V14.01,2013-09-16 01:59:00,
2013-09-15 21:04:00,56.5,48.7,30.26,North,0,0.0,0.0,75,0.00,,SKC,0.28,VWS V14.01,2013-09-16 02:04:00,
2013-09-15 21:09:00,56.3,48.5,30.29,North,0,0.0,0.0,75,0.00,,SKC,0.28,VWS V14.01,2013-09-16 02:09:00,
2013-09-15 21:14:00,56.3,48.5,30.29,North,0,0.0,0.0,75,0.00,,SKC,0.28,VWS V14.01,2013-09-16 02:14:00,
2013-09-15 21:19:00,56.1,48.3,30.29,North,0,0.0,0.0,75,0.00,,SKC,0.28,VWS V14.01,2013-09-16 02:19:00,
2013-09-15 21:24:00,56.1,48.3,30.29,North,0,0.0,0.0,75,0.00,,SKC,0.28,VWS V14.01,2013-09-16 02:24:00,
2013-09-15 21:29:00,56.1,48.7,30.29,North,0,0.0,0.0,76,0.00,,SKC,0.28,VWS V14.01,2013-09-16 02:29:00,
2013-09-15 21:34:00,56.3,49.2,30.29,North,0,0.0,0.0,77,0.00,,SKC,0.28,VWS V14.01,2013-09-16 02:34:00,
2013-09-15 21:39:00,56.5,49.7,30.29,North,0,0.0,0.0,78,0.00,,SKC,0.28,VWS V14.01,2013-09-16 02:39:00,
2013-09-15 21:44:00,56.7,50.2,30.29,North,0,0.0,0.0,79,0.00,,SKC,0.28,VWS V14.01,2013-09-16 02:44:00,
2013-09-15 21:49:00,56.8,50.7,30.29,North,0,0.0,0.0,80,0.00,,SKC,0.28,VWS V14.01,2013-09-16 02:49:00,
2013-09-15 21:54:00,56.8,50.7,30.29,North,0,0.0,0.0,80,0.00,,SKC,0.28,VWS V14.01,2013-09-16 02:54:00,
2013-09-15 21:59:00,56.7,50.2,30.29,North,0,0.0,0.0,79,0.00,,SKC,0.28,VWS V14.01,2013-09-16 02:59:00,
2013-09-15 22:04:00,56.7,49.9,30.29,North,0,0.0,0.0,78,0.00,,SKC,0.28,VWS V14.01,2013-09-16 03:04:00,
2013-09-15 22:09:00,56.3,49.5,30.29,North,0,0.0,0.0,78,0.00,,SKC,0.28,VWS V14.01,2013-09-16 03:09:00,
2013-09-15 22:14:00,56.1,49.4,30.29,North,0,0.0,0.0,78,0.00,,SKC,0.28,VWS V14.01,2013-09-16 03:14:00,
2013-09-15 22:19:00,55.8,49.4,30.29,North,0,0.0,0.0,79,0.00,,SKC,0.28,VWS V14.01,2013-09-16 03:19:00,
2013-09-15 22:24:00,55.6,49.2,30.29,North,0,0.0,0.0,79,0.00,,SKC,0.28,VWS V14.01,2013-09-16 03:24:00,
2013-09-15 22:30:00,55.4,49.3,30.29,North,0,0.0,0.0,80,0.00,,SKC,0.28,VWS V14.01,2013-09-16 03:30:00,
2013-09-15 22:35:00,55.2,49.5,30.29,North,0,0.0,0.0,81,0.00,,SKC,0.28,VWS V14.01,2013-09-16 03:35:00,
2013-09-15 22:40:00,55.2,49.5,30.29,North,0,0.0,0.0,81,0.00,,SKC,0.28,VWS V14.01,2013-09-16 03:40:00,
2013-09-15 22:45:00,55.0,49.3,30.29,North,0,0.0,0.0,81,0.00,,SKC,0.28,VWS V14.01,2013-09-16 03:45:00,
2013-09-15 22:50:00,55.0,49.3,30.29,North,0,0.0,0.0,81,0.00,,SKC,0.28,VWS V14.01,2013-09-16 03:50:00,
2013-09-15 22:55:00,54.9,49.2,30.32,North,0,0.0,0.0,81,0.00,,SKC,0.28,VWS V14.01,2013-09-16 03:55:00,
2013-09-15 23:00:00,54.5,48.8,30.32,North,0,0.0,0.0,81,0.00,,SKC,0.28,VWS V14.01,2013-09-16 04:00:00,
2013-09-15 23:01:00,54.5,48.8,30.32,North,0,0.0,0.0,81,0.00,,SKC,0.28,VWS V14.01,2013-09-16 04:01:00,
2013-09-15 23:02:00,54.5,48.8,30.32,North,0,0.0,0.0,81,0.00,,SKC,0.28,VWS V14.01,2013-09-16 04:02:00,
2013-09-15 23:04:00,54.5,48.8,30.32,North,0,0.0,0.0,81,0.00,,SKC,0.28,VWS V14.01,2013-09-16 04:04:00,
2013-09-15 23:09:00,54.3,48.6,30.32,North,0,0.0,0.0,81,0.00,,SKC,0.28,VWS V14.01,2013-09-16 04:09:00,
2013-09-15 23:11:00,54.3,48.6,30.32,North,0,0.0,0.0,81,0.00,,SKC,0.28,VWS V14.01,2013-09-16 04:11:00,
2013-09-15 23:15:00,54.1,48.5,30.32,North,0,0.0,0.0,81,0.00,,SKC,0.28,VWS V14.01,2013-09-16 04:15:00,
2013-09-15 23:21:00,54.0,48.3,30.32,North,0,0.0,0.0,81,0.00,,SKC,0.28,VWS V14.01,2013-09-16 04:21:00,
2013-09-15 23:26:00,53.8,48.1,30.32,North,0,0.0,0.0,81,0.00,,SKC,0.28,VWS V14.01,2013-09-16 04:26:00,
2013-09-15 23:31:00,53.6,47.9,30.32,North,0,0.0,0.0,81,0.00,,SKC,0.28,VWS V14.01,2013-09-16 04:31:00,
2013-09-15 23:36:00,53.4,48.1,30.32,North,0,0.0,0.0,82,0.00,,SKC,0.28,VWS V14.01,2013-09-16 04:36:00,
2013-09-15 23:41:00,53.2,47.9,30.32,North,0,0.0,0.0,82,0.00,,SKC,0.28,VWS V14.01,2013-09-16 04:41:00,
2013-09-15 23:46:00,53.1,47.7,30.32,North,0,0.0,0.0,82,0.00,,SKC,0.28,VWS V14.01,2013-09-16 04:46:00,
2013-09-15 23:51:00,52.7,47.7,30.32,North,0,0.0,0.0,83,0.00,,SKC,0.28,VWS V14.01,2013-09-16 04:51:00,
2013-09-15 23:57:00,52.5,47.5,30.32,North,0,0.0,0.0,83,0.00,,SKC,0.28,VWS V14.01,2013-09-16 04:57:00,